Tracking 35275 objects as of 9-Sep-2026
HD Live streaming from Space Station
objects crossing your sky now

EXPLORER 47 (IMP-7)


EXPLORER 47 (IMP-7) is classified as:


NORAD ID: 6197
Int'l Code: 1972-073A
Launch date: September 23, 1972
Source: United States (US)
Launch site: AIR FORCE EASTERN TEST RANGE (AFETR)
Your satellite tracking list
Your tracking list is empty




NASA's NSSDC Master Catalog

Two Line Element Set (TLE):
1  6197U 72073A   25193.82548704 -.00001053  00000-0  00000+0 0  9999
2  6197  48.3952  57.1732 1266560 176.6749 354.2394  0.07880551  3633
Source of the keplerian elements: AFSPC